Point Salines, Grenada

12:41 AM AST on April 23, 2018 (GMT -0400)
Point Salines International

Weather History for TGPY - November, 2011

Change the Weather History Date:

Saturday, November 26, 2011

  Actual Average Record
Temperature  
Mean Temperature 80 °F -  
Max Temperature 86 °F 83 °F 90 °F (2012)
Min Temperature 75 °F 74 °F 73 °F (2005)
Cooling Degree Days 16    
Growing Degree Days 30 (Base 50)    
Moisture  
Dew Point 78 °F    
Average Humidity 88    
Maximum Humidity 95    
Minimum Humidity 74    
Precipitation  
Precipitation 0.08 in - - ()
Sea Level Pressure  
Sea Level Pressure 29.83 in    
Wind  
Wind Speed 7 mph ()    
Max Wind Speed 16 mph    
Max Gust Speed -    
Visibility 6.8 miles    
Events Rain    
Averages and records for this station are not official NWS values.
T = Trace of Precipitation, MM = Missing Value Source: Averaged Metar Reports

Daily Weather History Graph

Daily Weather History Graph

Search for Another Location

Airport or City:

Astronomy

Nov. 26, 2011 Rise Set
Actual Time 6:09 AM AST 5:39 PM AST
Civil Twilight 5:46 AM AST 6:01 PM AST
Nautical Twilight 5:20 AM AST 6:28 PM AST
Astronomical Twilight 4:54 AM AST 6:53 PM AST
Moon 7:26 AM AST (11/26) 7:13 PM AST (11/26)
Length of Visible Light 12h 15m
Length of Day
11h 30m
Waxing Crescent, 3% of the Moon is Illuminated
Nov 26
Waxing Crescent
Dec 2
First Quarter
Dec 10
Full
Dec 17
Last Quarter
Dec 24
New

Hourly Weather History & Observations

Time (AST) Temp. Heat Index Dew Point Humidity Pressure Visibility Wind Dir Wind Speed Gust Speed Precip Events Conditions
12:00 AM 78.8 °F - 75.2 °F 89% 29.83 in 6.2 mi East 6.9 mph - N/A   Scattered Clouds
1:00 AM 78.8 °F - 75.2 °F 89% 29.83 in 6.2 mi Variable 2.3 mph - N/A   Scattered Clouds
2:00 AM 79 °F - 76 °F 89% 29.83 in 9 mi 2.3 mph - -   Widespread Dust
2:00 AM 78.8 °F - 77.0 °F 94% 29.83 in 6.2 mi Variable 2.3 mph - N/A   Scattered Clouds
3:00 AM 78.8 °F - 77.0 °F 94% 29.83 in 3.7 mi East 5.8 mph - N/A Rain Rain Showers
5:00 AM 78 °F - 77 °F 95% 29.82 in 6 mi ENE 5.8 mph - -   Partly Cloudy
5:00 AM 78.8 °F - 77.0 °F 94% 29.80 in 6.2 mi ENE 5.8 mph - N/A   Mostly Cloudy
6:00 AM 78.8 °F - 77.0 °F 94% 29.83 in 5.0 mi East 8.1 mph - N/A   Scattered Clouds
7:00 AM 78.8 °F - 77.0 °F 94% 29.86 in 6.2 mi East 8.1 mph - N/A   Scattered Clouds
8:00 AM 82 °F - 78 °F 83% 29.89 in 9 mi East 9.2 mph - -   Widespread Dust
8:00 AM 82.4 °F 90.9 °F 77.0 °F 84% 29.89 in 6.2 mi East 9.2 mph - N/A   Scattered Clouds
9:00 AM 84.2 °F 96.1 °F 78.8 °F 84% 29.89 in 6.2 mi ESE 9.2 mph - N/A   Scattered Clouds
10:00 AM 86.0 °F 96.9 °F 77.0 °F 74% 29.89 in 6.2 mi ESE 11.5 mph - N/A   Mostly Cloudy
11:00 AM 85 °F - 79 °F 77% 29.89 in 11 mi ESE 16.1 mph - - Rain Light Rain Showers
11:00 AM 84.2 °F 96.1 °F 78.8 °F 84% 29.89 in 6.2 mi ESE 16.1 mph - N/A Rain Light Rain Showers
12:00 PM 86.0 °F 101.9 °F 80.6 °F 84% 29.86 in 6.2 mi ESE 10.4 mph - N/A   Scattered Clouds
1:00 PM 86.0 °F 99.3 °F 78.8 °F 79% 29.83 in 6.2 mi ESE 10.4 mph - N/A   Scattered Clouds
2:00 PM 86 °F - 80 °F 76% 29.81 in 14 mi SE 13.8 mph - -   Widespread Dust
2:00 PM 86.0 °F 99.3 °F 78.8 °F 79% 29.80 in 6.2 mi SE 13.8 mph - N/A   Scattered Clouds
3:00 PM 82.4 °F 92.4 °F 78.8 °F 89% 29.80 in 6.2 mi ESE 12.7 mph - N/A Rain Light Rain Showers
4:00 PM 80.6 °F 88.1 °F 78.8 °F 94% 29.80 in 5.0 mi ESE 16.1 mph - N/A Rain Rain Showers
5:00 PM 80 °F - 78 °F 93% 29.79 in 6 mi SE 15.0 mph - - Rain Light Rain Showers
5:00 PM 80.6 °F 88.1 °F 78.8 °F 94% 29.77 in 6.2 mi SE 15.0 mph - N/A Rain Light Rain Showers
6:00 PM 80.6 °F 87.1 °F 77.0 °F 89% 29.77 in 6.2 mi SE 10.4 mph - N/A   Mostly Cloudy
7:00 PM 80.6 °F 87.1 °F 77.0 °F 89% 29.77 in 6.2 mi SE 5.8 mph - N/A   Mostly Cloudy
8:00 PM 78 °F - 77 °F 94% 29.81 in 7 mi East 4.6 mph - -   Widespread Dust
8:00 PM 78.8 °F - 77.0 °F 94% 29.80 in 6.2 mi East 4.6 mph - N/A   Mostly Cloudy
9:00 PM 78.8 °F - 77.0 °F 94% 29.83 in 6.2 mi ESE 8.1 mph - N/A   Mostly Cloudy
10:00 PM 80.6 °F 86.2 °F 75.2 °F 84% 29.83 in 6.2 mi ESE 8.1 mph - N/A   Mostly Cloudy
11:00 PM 80 °F - 77 °F 89% 29.84 in 11 mi ESE 6.9 mph - -   Scattered Clouds
11:00 PM 80.6 °F 87.1 °F 77.0 °F 89% 29.83 in 6.2 mi ESE 6.9 mph - N/A   Mostly Cloudy